Powrót do katalogu

COSMOS 1479

AktywnyNawigacjaLEO
NORAD 14177·PAYLOAD·🇷🇺 Russia

Wystrzelony Jul 6, 1983 z Plesetsk Cosmodrome

Loading…

Następne Przeloty (najbliższe 24 godziny)

TLE

ŚwieżeSource: Space-Track

Epoka: Sep 14, 2026, 06:49 UTC

1 14177U 83069G   26257.28454301 -.00000010  00000-0  38784-4 0  9991
2 14177  74.0296   5.4402 0023026 149.1391 238.8333 12.46105268964808

Śledź COSMOS 1479 w czasie rzeczywistym z AllMySat

Download on the App Store